| time (UTC) | temp F | wind direction | speed MPH | gust MPH | rain 1hr in | rain 24hr in | rain mn in | humidity % | barometer mb |
| 20260903035403 | 63 | 196 | 0.0 | 2.0 | 0.13 | 0.27 | 0.27 | 91 | 1012.6 |
| 20260903034403 | 63 | 196 | 1.0 | 12.0 | 0.10 | 0.24 | 0.24 | 91 | 1012.5 |
| 20260903033402 | 63 | 68 | 1.0 | 7.0 | 0.04 | 0.18 | 0.18 | 91 | 1012.1 |
| 20260903032403 | 63 | 133 | 0.0 | 1.0 | 0.03 | 0.17 | 0.17 | 91 | 1012.2 |
| 20260903031402 | 63 | 132 | 0.0 | 3.0 | 0.01 | 0.15 | 0.15 | 91 | 1012.1 |
| 20260903030403 | 63 | 134 | 0.0 | 8.0 | 0.00 | 0.14 | 0.14 | 90 | 1012.2 |
| 20260903025402 | 63 | 174 | 0.0 | 3.0 | 0.11 | 0.12 | 0.12 | 90 | 1012.4 |
| 20260903024403 | 63 | 174 | 0.0 | 5.0 | 0.08 | 0.09 | 0.09 | 90 | 1012.8 |
| 20260903023402 | 64 | 171 | 0.0 | 5.0 | 0.07 | 0.08 | 0.08 | 89 | 1012.7 |
| 20260903022403 | 64 | 191 | 1.0 | 5.0 | 0.06 | 0.07 | 0.07 | 89 | 1012.9 |
| 20260903021424 | 64 | 181 | 1.0 | 3.0 | 0.05 | 0.06 | 0.06 | 88 | 1012.8 |
| 20260903020402 | 65 | 148 | 0.0 | 4.0 | 0.01 | 0.02 | 0.02 | 87 | 1012.9 |
| 20260903015403 | 65 | 188 | 1.0 | 5.0 | 0.01 | 0.01 | 0.01 | 86 | 1013.1 |
| 20260903013424 | 66 | 183 | 2.0 | 8.0 | 0.00 | 0.00 | 0.00 | 83 | 1013.2 |
| 20260903012402 | 66 | 223 | 1.0 | 12.0 | 0.00 | 0.00 | 0.00 | 84 | 1013.1 |
| 20260903011403 | 66 | 177 | 1.0 | 11.0 | 0.00 | 0.00 | 0.00 | 84 | 1013.1 |
| 20260903010424 | 66 | 193 | 0.0 | 8.0 | 0.00 | 0.00 | 0.00 | 84 | 1013.3 |
| 20260903005402 | 66 | 171 | 2.0 | 10.0 | 0.00 | 0.00 | 0.00 | 84 | 1013.2 |
| 20260903004403 | 66 | 167 | 1.0 | 6.0 | 0.00 | 0.00 | 0.00 | 83 | 1013.2 |
| 20260903003402 | 66 | 180 | 0.0 | 8.0 | 0.00 | 0.00 | 0.00 | 83 | 1012.9 |
| 20260903002402 | 66 | 148 | 1.0 | 8.0 | 0.00 | 0.00 | 0.00 | 84 | 1012.7 |
| 20260903001402 | 66 | 164 | 0.0 | 5.0 | 0.00 | 0.00 | 0.00 | 84 | 1012.8 |
| 20260903000403 | 66 | 183 | 1.0 | 7.0 | 0.00 | 0.00 | 0.00 | 84 | 1013.0 |
| 20260902235403 | 66 | 104 | 1.0 | 5.0 | 0.00 | 0.00 | 0.00 | 84 | 1013.0 |
| 20260902234402 | 66 | 178 | 0.0 | 5.0 | 0.00 | 0.00 | 0.00 | 83 | 1013.0 |
| 20260902233402 | 66 | 200 | 2.0 | 9.0 | 0.00 | 0.00 | 0.00 | 83 | 1013.0 |
| 20260902232423 | 66 | 150 | 0.0 | 6.0 | 0.00 | 0.00 | 0.00 | 83 | 1013.2 |
| 20260902231403 | 66 | 182 | 0.0 | 3.0 | 0.00 | 0.00 | 0.00 | 83 | 1013.2 |
| 20260902230404 | 67 | 151 | 1.0 | 10.0 | 0.00 | 0.00 | 0.00 | 83 | 1013.5 |
| 20260902224404 | 67 | 147 | 1.0 | 12.0 | 0.00 | 0.00 | 0.00 | 82 | 1013.8 |
| 20260902223404 | 67 | 194 | 0.0 | 7.0 | 0.00 | 0.00 | 0.00 | 82 | 1014.0 |
| 20260902222404 | 68 | 176 | 2.0 | 14.0 | 0.00 | 0.00 | 0.00 | 82 | 1013.5 |
| 20260902221403 | 68 | 170 | 2.0 | 16.0 | 0.00 | 0.00 | 0.00 | 81 | 1013.8 |
| 20260902220404 | 68 | 178 | 1.0 | 10.0 | 0.00 | 0.00 | 0.00 | 80 | 1014.1 |
| 20260902215425 | 69 | 159 | 0.0 | 10.0 | 0.00 | 0.00 | 0.00 | 80 | 1014.2 |
| 20260902214404 | 69 | 134 | 2.0 | 11.0 | 0.00 | 0.00 | 0.00 | 79 | 1014.4 |
| 20260902213403 | 70 | 129 | 2.0 | 10.0 | 0.00 | 0.00 | 0.00 | 80 | 1014.4 |
| 20260902212404 | 70 | 196 | 0.0 | 0.0 | 0.00 | 0.00 | 0.00 | 80 | 1014.8 |
| 20260902211403 | 70 | 159 | 0.0 | 0.0 | 0.00 | 0.00 | 0.00 | 80 | 1015.1 |
| 20260902210404 | 70 | 203 | 0.0 | 0.0 | 0.00 | 0.00 | 0.00 | 79 | 1015.0 |
| 20260902205403 | 71 | 159 | 0.0 | 0.0 | 0.00 | 0.00 | 0.00 | 79 | 1015.0 |
| 20260902204404 | 71 | 146 | 0.0 | 0.0 | 0.00 | 0.00 | 0.00 | 78 | 1014.7 |
| 20260902203403 | 72 | 92 | 0.0 | 0.0 | 0.00 | 0.00 | 0.00 | 77 | 1014.7 |
| 20260902202426 | 71 | 86 | 0.0 | 0.0 | 0.00 | 0.00 | 0.00 | 78 | 1015.0 |
| 20260902201424 | 72 | 174 | 0.0 | 0.0 | 0.00 | 0.00 | 0.00 | 76 | 1015.6 |
| 20260902200404 | 72 | 132 | 0.0 | 0.0 | 0.00 | 0.00 | 0.00 | 78 | 1015.6 |
| 20260902195403 | 71 | 160 | 0.0 | 0.0 | 0.00 | 0.00 | 0.00 | 76 | 1015.4 |
| 20260902194403 | 72 | 191 | 0.0 | 0.0 | 0.00 | 0.00 | 0.00 | 78 | 1015.1 |
| 20260902193404 | 72 | 160 | 0.0 | 0.0 | 0.00 | 0.00 | 0.00 | 77 | 1015.2 |
| 20260902192404 | 73 | 164 | 0.0 | 0.0 | 0.00 | 0.00 | 0.00 | 77 | 1015.4 |
| 20260902191404 | 73 | 199 | 0.0 | 0.0 | 0.00 | 0.00 | 0.00 | 73 | 1015.6 |
| 20260902190404 | 74 | 209 | 0.0 | 0.0 | 0.00 | 0.00 | 0.00 | 72 | 1015.5 |
| 20260902185446 | 75 | 240 | 0.0 | 0.0 | 0.00 | 0.00 | 0.00 | 73 | 1015.6 |
| 20260902184403 | 74 | 138 | 0.0 | 0.0 | 0.00 | 0.00 | 0.00 | 74 | 1015.7 |
| 20260902183404 | 74 | 162 | 0.0 | 0.0 | 0.00 | 0.00 | 0.00 | 74 | 1015.8 |
| 20260902182425 | 74 | 121 | 0.0 | 0.0 | 0.00 | 0.00 | 0.00 | 72 | 1016.0 |
| 20260902181425 | 75 | 235 | 0.0 | 0.0 | 0.00 | 0.00 | 0.00 | 74 | 1016.0 |
| 20260902180403 | 74 | 269 | 0.0 | 0.0 | 0.00 | 0.00 | 0.00 | 73 | 1015.9 |
| 20260902175404 | 74 | 213 | 0.0 | 0.0 | 0.00 | 0.00 | 0.00 | 76 | 1015.8 |
| 20260902174403 | 74 | 171 | 0.0 | 0.0 | 0.00 | 0.00 | 0.00 | 76 | 1016.0 |
| 20260902173404 | 74 | 224 | 0.0 | 0.0 | 0.00 | 0.00 | 0.00 | 75 | 1015.9 |
| 20260902172403 | 74 | 178 | 0.0 | 0.0 | 0.00 | 0.00 | 0.00 | 75 | 1016.2 |
| 20260902171403 | 74 | 209 | 0.0 | 0.0 | 0.00 | 0.00 | 0.00 | 75 | 1016.3 |
| 20260902170446 | 74 | 165 | 0.0 | 0.0 | 0.00 | 0.00 | 0.00 | 73 | 1016.3 |
| 20260902165403 | 74 | 158 | 0.0 | 9.0 | 0.00 | 0.00 | 0.00 | 74 | 1016.3 |
| 20260902164404 | 73 | 197 | 3.0 | 18.0 | 0.00 | 0.00 | 0.00 | 76 | 1016.4 |
| 20260902163403 | 73 | 176 | 4.0 | 15.0 | 0.00 | 0.00 | 0.00 | 75 | 1016.5 |
| 20260902162404 | 72 | 196 | 2.0 | 16.0 | 0.00 | 0.00 | 0.00 | 77 | 1016.5 |
| 20260902161425 | 72 | 185 | 3.0 | 11.0 | 0.00 | 0.00 | 0.00 | 79 | 1016.7 |
| 20260902160403 | 71 | 156 | 4.0 | 14.0 | 0.00 | 0.00 | 0.00 | 77 | 1017.0 |
| 20260902155425 | 71 | 161 | 3.0 | 10.0 | 0.00 | 0.00 | 0.00 | 80 | 1017.2 |
| 20260902154403 | 71 | 167 | 4.0 | 10.0 | 0.00 | 0.00 | 0.00 | 77 | 1017.3 |
| 20260902153404 | 71 | 94 | 1.0 | 9.0 | 0.00 | 0.00 | 0.00 | 78 | 1017.2 |
| 20260902152403 | 71 | 177 | 1.0 | 8.0 | 0.00 | 0.00 | 0.00 | 79 | 1017.2 |
| 20260902151425 | 70 | 167 | 2.0 | 9.0 | 0.00 | 0.00 | 0.00 | 79 | 1017.2 |
| 20260902150404 | 70 | 155 | 4.0 | 12.0 | 0.00 | 0.00 | 0.00 | 77 | 1017.1 |
| 20260902145424 | 70 | 155 | 4.0 | 9.0 | 0.00 | 0.00 | 0.00 | 77 | 1017.1 |
| 20260902144404 | 69 | 121 | 1.0 | 12.0 | 0.00 | 0.00 | 0.00 | 79 | 1017.3 |
| 20260902143403 | 69 | 192 | 1.0 | 12.0 | 0.00 | 0.00 | 0.00 | 79 | 1017.6 |
| 20260902142403 | 69 | 186 | 3.0 | 11.0 | 0.00 | 0.00 | 0.00 | 78 | 1017.6 |
| 20260902141404 | 69 | 182 | 5.0 | 14.0 | 0.00 | 0.00 | 0.00 | 77 | 1017.5 |
| 20260902140403 | 69 | 88 | 0.0 | 7.0 | 0.00 | 0.00 | 0.00 | 79 | 1017.2 |
| 20260902135404 | 69 | 193 | 1.0 | 9.0 | 0.00 | 0.00 | 0.00 | 78 | 1017.1 |
| 20260902134424 | 69 | 346 | 1.0 | 8.0 | 0.00 | 0.00 | 0.00 | 80 | 1017.1 |
| 20260902133403 | 68 | 180 | 1.0 | 8.0 | 0.00 | 0.00 | 0.00 | 80 | 1017.2 |
| 20260902132403 | 68 | 110 | 2.0 | 8.0 | 0.00 | 0.00 | 0.00 | 78 | 1016.9 |
| 20260902131403 | 67 | 192 | 1.0 | 9.0 | 0.00 | 0.00 | 0.00 | 80 | 1017.0 |
| 20260902130403 | 67 | 142 | 0.0 | 9.0 | 0.00 | 0.00 | 0.00 | 80 | 1017.0 |
| 20260902125403 | 67 | 143 | 1.0 | 10.0 | 0.00 | 0.00 | 0.00 | 80 | 1017.1 |
| 20260902124404 | 67 | 189 | 4.0 | 10.0 | 0.00 | 0.00 | 0.00 | 81 | 1016.9 |
| 20260902123403 | 66 | 154 | 2.0 | 7.0 | 0.00 | 0.00 | 0.00 | 82 | 1016.8 |
| 20260902122404 | 65 | 103 | 1.0 | 8.0 | 0.00 | 0.00 | 0.00 | 82 | 1016.8 |
| 20260902121403 | 65 | 159 | 1.0 | 6.0 | 0.00 | 0.00 | 0.00 | 82 | 1016.9 |
| 20260902120404 | 65 | 184 | 1.0 | 7.0 | 0.00 | 0.00 | 0.00 | 83 | 1017.1 |
| 20260902115403 | 64 | 151 | 2.0 | 6.0 | 0.00 | 0.00 | 0.00 | 84 | 1017.1 |
| 20260902114403 | 63 | 142 | 1.0 | 9.0 | 0.00 | 0.00 | 0.00 | 84 | 1017.2 |
| 20260902113403 | 63 | 150 | 0.0 | 4.0 | 0.00 | 0.00 | 0.00 | 85 | 1017.2 |
| 20260902112402 | 63 | 86 | 0.0 | 6.0 | 0.00 | 0.00 | 0.00 | 84 | 1017.2 |
| 20260902111403 | 63 | 121 | 2.0 | 8.0 | 0.00 | 0.00 | 0.00 | 84 | 1017.1 |
| 20260902110403 | 63 | 99 | 1.0 | 7.0 | 0.00 | 0.00 | 0.00 | 84 | 1017.2 |
| 20260902105403 | 63 | 191 | 1.0 | 5.0 | 0.00 | 0.00 | 0.00 | 84 | 1017.1 |
| 20260902104403 | 63 | 156 | 0.0 | 7.0 | 0.00 | 0.00 | 0.00 | 85 | 1017.2 |
| 20260902103403 | 63 | 133 | 1.0 | 6.0 | 0.00 | 0.00 | 0.00 | 84 | 1017.0 |
| 20260902102424 | 63 | 142 | 0.0 | 7.0 | 0.00 | 0.00 | 0.00 | 85 | 1016.9 |
| 20260902101403 | 63 | 140 | 1.0 | 5.0 | 0.00 | 0.00 | 0.00 | 85 | 1016.9 |
| 20260902100403 | 63 | 192 | 0.0 | 6.0 | 0.00 | 0.00 | 0.00 | 84 | 1016.6 |
| 20260902095403 | 63 | 138 | 1.0 | 10.0 | 0.00 | 0.00 | 0.00 | 85 | 1016.8 |
| 20260902094403 | 63 | 160 | 1.0 | 5.0 | 0.00 | 0.00 | 0.00 | 84 | 1016.8 |
| 20260902093403 | 63 | 146 | 0.0 | 2.0 | 0.00 | 0.00 | 0.00 | 84 | 1016.8 |
| 20260902092403 | 64 | 138 | 0.0 | 8.0 | 0.00 | 0.00 | 0.00 | 84 | 1016.8 |
| 20260902091402 | 64 | 146 | 1.0 | 9.0 | 0.00 | 0.00 | 0.00 | 84 | 1016.9 |
| 20260902090403 | 64 | 87 | 0.0 | 6.0 | 0.00 | 0.00 | 0.00 | 84 | 1016.8 |
| 20260902085403 | 64 | 178 | 1.0 | 6.0 | 0.00 | 0.00 | 0.00 | 84 | 1016.7 |
| 20260902084403 | 64 | 55 | 1.0 | 8.0 | 0.00 | 0.00 | 0.00 | 84 | 1016.7 |
| 20260902083404 | 64 | 90 | 1.0 | 6.0 | 0.00 | 0.00 | 0.00 | 84 | 1016.7 |
| 20260902082403 | 65 | 185 | 0.0 | 8.0 | 0.00 | 0.00 | 0.00 | 84 | 1016.8 |
| 20260902081402 | 64 | 174 | 0.0 | 7.0 | 0.00 | 0.00 | 0.00 | 84 | 1016.9 |
| 20260902080424 | 64 | 67 | 1.0 | 9.0 | 0.00 | 0.00 | 0.00 | 84 | 1016.7 |
| 20260902075403 | 64 | 137 | 1.0 | 7.0 | 0.00 | 0.00 | 0.00 | 84 | 1016.7 |
| 20260902074403 | 64 | 173 | 0.0 | 6.0 | 0.00 | 0.00 | 0.00 | 84 | 1016.7 |
| 20260902073403 | 65 | 117 | 0.0 | 6.0 | 0.00 | 0.00 | 0.00 | 84 | 1016.7 |
| 20260902072404 | 64 | 181 | 0.0 | 6.0 | 0.00 | 0.00 | 0.00 | 84 | 1016.8 |
| 20260902071403 | 64 | 170 | 0.0 | 5.0 | 0.00 | 0.00 | 0.00 | 85 | 1016.8 |
| 20260902070424 | 64 | 88 | 0.0 | 7.0 | 0.00 | 0.00 | 0.00 | 84 | 1016.9 |
| 20260902065403 | 64 | 122 | 0.0 | 7.0 | 0.00 | 0.00 | 0.00 | 85 | 1016.8 |
| 20260902064403 | 64 | 150 | 0.0 | 3.0 | 0.00 | 0.00 | 0.00 | 85 | 1016.8 |
| 20260902063403 | 64 | 167 | 0.0 | 6.0 | 0.00 | 0.00 | 0.00 | 86 | 1016.9 |
| 20260902062403 | 63 | 159 | 0.0 | 5.0 | 0.00 | 0.00 | 0.00 | 86 | 1016.9 |
| 20260902061403 | 63 | 122 | 0.0 | 1.0 | 0.00 | 0.00 | 0.00 | 86 | 1016.9 |
| 20260902055404 | 63 | 91 | 0.0 | 4.0 | 0.00 | 0.00 | 0.00 | 87 | 1016.8 |
| 20260902054403 | 62 | 155 | 0.0 | 3.0 | 0.00 | 0.00 | 0.00 | 87 | 1016.7 |
| 20260902053403 | 62 | 156 | 0.0 | 0.0 | 0.00 | 0.00 | 0.00 | 88 | 1016.6 |
| 20260902052424 | 62 | 156 | 0.0 | 0.0 | 0.00 | 0.00 | 0.00 | 87 | 1016.7 |
| 20260902051403 | 62 | 156 | 0.0 | 2.0 | 0.00 | 0.00 | 0.00 | 87 | 1016.8 |
| 20260902050425 | 62 | 156 | 0.0 | 3.0 | 0.00 | 0.00 | 0.00 | 87 | 1016.8 |
| 20260902045424 | 62 | 155 | 0.0 | 1.0 | 0.00 | 0.00 | 0.00 | 87 | 1016.7 |
| 20260902044403 | 62 | 155 | 0.0 | 0.0 | 0.00 | 0.00 | 0.00 | 88 | 1016.7 |
| 20260902043403 | 63 | 155 | 0.0 | 3.0 | 0.00 | 0.00 | 0.00 | 88 | 1016.7 |
| 20260902042404 | 63 | 155 | 0.0 | 0.0 | 0.00 | 0.00 | 0.00 | 87 | 1016.7 |
| 20260902040403 | 63 | 155 | 0.0 | 0.0 | 0.00 | 0.00 | 0.00 | 86 | 1016.5 |